Location: La Brionne
(46.1728°N, 1.7849°E)
Time: 13:39:35
(UTC+00:00)

Cosmos 2219 Rocket - Pass Details

Date: 31 October 2021
Orbit: 826 x 848 km, 71.0° (Epoch: 01 December)

Event Time Altitude Azimuth Distance (km) Brightness Sun altitude
Rises 19:43:19 0° 247° (WSW) 3,364 6.0 -32.1°
Reaches altitude 10° 19:46:16 10° 262° (W) 2,437 5.3 -32.6°
Maximum altitude 19:50:37 23° 314° (NW) 1,714 4.3 -33.3°
Enters shadow 19:54:23 13° 0° (N) 2,281 4.6 -34.0°
